DAL2340 KATL-KEWR

Flight info

Callsign DAL2340
Flight time 1h 43m
Altitude 35000
Route PLMMR3 BURGG Q22 UMBRE QUART PHLBO4
Aircraft B739/M-SDE2E3FGHIRWXY/LB1

Departure

Time 2026-05-05 19:06
Airport Hartsfield Jackson Atlanta International Airport (KATL)

Arrival

Time 2026-05-05 20:49
Airport Newark Liberty International Airport (KEWR)
Time Latitude Longitude Altitude Speed Heading
2026-05-05 18:47 33.64380 -84.43874 1005 ft 0 kts 271°
2026-05-05 18:54 33.64379 -84.43861 1005 ft 3 kts 271°
2026-05-05 18:54 33.64379 -84.43838 1005 ft 3 kts 271°
2026-05-05 18:55 33.64378 -84.43816 1005 ft 3 kts 262°
2026-05-05 18:55 33.64387 -84.43798 1005 ft 3 kts 196°
2026-05-05 18:55 33.64392 -84.43796 1005 ft 0 kts 184°
2026-05-05 18:57 33.64385 -84.43790 1005 ft 3 kts 134°
2026-05-05 18:57 33.64390 -84.43777 1005 ft 0 kts 37°
2026-05-05 18:57 33.64390 -84.43776 1005 ft 1 kts 36°
2026-05-05 18:58 33.64433 -84.43740 1005 ft 9 kts 40°
2026-05-05 18:58 33.64458 -84.43675 1005 ft 9 kts 85°
2026-05-05 18:58 33.64458 -84.43600 1005 ft 9 kts 89°
2026-05-05 18:58 33.64462 -84.43526 1005 ft 9 kts 87°
2026-05-05 18:59 33.64461 -84.43432 1005 ft 17 kts 92°
2026-05-05 18:59 33.64461 -84.43291 1006 ft 17 kts 89°
2026-05-05 18:59 33.64462 -84.43155 1006 ft 16 kts 91°
2026-05-05 18:59 33.64459 -84.43026 1006 ft 15 kts 90°
2026-05-05 19:00 33.64460 -84.42900 1005 ft 15 kts 90°
2026-05-05 19:00 33.64461 -84.42780 1005 ft 14 kts 84°
2026-05-05 19:00 33.64468 -84.42665 1005 ft 13 kts 88°
2026-05-05 19:00 33.64469 -84.42551 1005 ft 16 kts 90°
2026-05-05 19:01 33.64468 -84.42396 1005 ft 19 kts 89°
2026-05-05 19:01 33.64481 -84.42241 1005 ft 19 kts 64°
2026-05-05 19:01 33.64539 -84.42106 1017 ft 18 kts 76°
2026-05-05 19:01 33.64544 -84.41959 1005 ft 17 kts 90°
2026-05-05 19:02 33.64542 -84.41818 1005 ft 17 kts 90°
2026-05-05 19:02 33.64544 -84.41675 1006 ft 18 kts 89°
2026-05-05 19:02 33.64545 -84.41528 1006 ft 17 kts 98°
2026-05-05 19:02 33.64542 -84.41386 1006 ft 17 kts 88°
2026-05-05 19:03 33.64544 -84.41245 1006 ft 19 kts 89°
2026-05-05 19:03 33.64545 -84.41066 1006 ft 22 kts 90°
2026-05-05 19:03 33.64544 -84.40888 1005 ft 20 kts 89°
2026-05-05 19:03 33.64567 -84.40728 1005 ft 19 kts 86°
2026-05-05 19:04 33.64572 -84.40610 1004 ft 1 kts 70°
2026-05-05 19:04 33.64574 -84.40605 1004 ft 1 kts 66°
2026-05-05 19:04 33.64576 -84.40601 1004 ft 1 kts 64°
2026-05-05 19:04 33.64599 -84.40577 1004 ft 9 kts 25°
2026-05-05 19:05 33.64665 -84.40584 1003 ft 10 kts 320°
2026-05-05 19:05 33.64681 -84.40693 1003 ft 31 kts 270°
2026-05-05 19:05 33.64679 -84.41301 1007 ft 113 kts 269°
2026-05-05 19:05 33.64665 -84.42527 1038 ft 175 kts 268°
2026-05-05 19:06 33.64729 -84.44003 1786 ft 182 kts 276°
2026-05-05 19:06 33.64836 -84.45546 2608 ft 186 kts 260°
2026-05-05 19:06 33.64916 -84.47184 3070 ft 218 kts 289°
2026-05-05 19:06 33.65668 -84.48893 3320 ft 245 kts 294°
2026-05-05 19:07 33.66459 -84.50817 3595 ft 270 kts 292°
2026-05-05 19:07 33.67270 -84.52894 4338 ft 275 kts 291°
2026-05-05 19:07 33.68068 -84.54969 5362 ft 273 kts 290°
2026-05-05 19:07 33.69088 -84.56894 6278 ft 279 kts 314°
2026-05-05 19:08 33.70806 -84.58026 7081 ft 291 kts 344°
2026-05-05 19:08 33.72825 -84.58292 7928 ft 294 kts 356°
2026-05-05 19:08 33.74883 -84.58263 8734 ft 297 kts 358°
2026-05-05 19:08 33.76956 -84.58172 9584 ft 299 kts
2026-05-05 19:09 33.78934 -84.57406 10311 ft 310 kts 30°
2026-05-05 19:09 33.80503 -84.55598 10920 ft 322 kts 56°
2026-05-05 19:09 33.81290 -84.52999 11121 ft 345 kts 85°
2026-05-05 19:09 33.81346 -84.50042 11315 ft 365 kts 91°
2026-05-05 19:10 33.81303 -84.46900 11499 ft 385 kts 92°
2026-05-05 19:10 33.81265 -84.43644 11927 ft 394 kts 91°
2026-05-05 19:10 33.81261 -84.40316 12528 ft 399 kts 90°
2026-05-05 19:10 33.81279 -84.36972 13202 ft 401 kts 90°
2026-05-05 19:11 33.81331 -84.33604 13840 ft 405 kts 85°
2026-05-05 19:11 33.81770 -84.30236 14350 ft 409 kts 77°
2026-05-05 19:11 33.82419 -84.26887 14890 ft 413 kts 75°
2026-05-05 19:11 33.83104 -84.23510 15418 ft 417 kts 75°
2026-05-05 19:12 33.83781 -84.20101 15933 ft 421 kts 75°
2026-05-05 19:12 33.84439 -84.16655 16465 ft 425 kts 76°
2026-05-05 19:12 33.85084 -84.13171 16981 ft 428 kts 76°
2026-05-05 19:12 33.85723 -84.09655 17492 ft 433 kts 76°
2026-05-05 19:13 33.86359 -84.06112 17986 ft 437 kts 76°
2026-05-05 19:13 33.87004 -84.02508 18440 ft 441 kts 76°
2026-05-05 19:13 33.87651 -83.98888 18861 ft 444 kts 75°
2026-05-05 19:13 33.88303 -83.95241 19317 ft 447 kts 75°
2026-05-05 19:14 33.88959 -83.91570 19759 ft 450 kts 75°
2026-05-05 19:14 33.89784 -83.87942 20176 ft 450 kts 66°
2026-05-05 19:14 33.90990 -83.84471 20631 ft 450 kts 62°
2026-05-05 19:14 33.92308 -83.81049 21076 ft 452 kts 62°
2026-05-05 19:15 33.93581 -83.77620 21462 ft 457 kts 63°
2026-05-05 19:15 33.94832 -83.74078 21861 ft 460 kts 63°
2026-05-05 19:15 33.96281 -83.70656 22233 ft 458 kts 52°
2026-05-05 19:15 33.98132 -83.67541 22634 ft 457 kts 48°
2026-05-05 19:16 34.00078 -83.64504 23035 ft 459 kts 47°
2026-05-05 19:16 34.02054 -83.61458 23413 ft 462 kts 47°
2026-05-05 19:16 34.04024 -83.58382 23748 ft 465 kts 47°
2026-05-05 19:16 34.05984 -83.55266 24062 ft 467 kts 48°
2026-05-05 19:17 34.07933 -83.52121 24427 ft 469 kts 49°
2026-05-05 19:17 34.09877 -83.48952 24790 ft 470 kts 49°
2026-05-05 19:17 34.11820 -83.45769 25111 ft 472 kts 49°
2026-05-05 19:17 34.13774 -83.42564 25399 ft 475 kts 49°
2026-05-05 19:18 34.15740 -83.39338 25693 ft 478 kts 49°
2026-05-05 19:18 34.17050 -83.37187 25907 ft 479 kts 49°
2026-05-05 19:18 34.19676 -83.32874 26311 ft 482 kts 48°
2026-05-05 19:18 34.21665 -83.29605 26602 ft 484 kts 48°
2026-05-05 19:19 34.23664 -83.26317 26878 ft 487 kts 48°
2026-05-05 19:19 34.25674 -83.23009 27150 ft 489 kts 48°
2026-05-05 19:19 34.27033 -83.20770 27337 ft 491 kts 48°
2026-05-05 19:19 34.29059 -83.17430 27631 ft 493 kts 48°
2026-05-05 19:20 34.31063 -83.14123 27898 ft 495 kts 48°
2026-05-05 19:20 34.33114 -83.10757 28176 ft 497 kts 48°
2026-05-05 19:20 34.35176 -83.07391 28467 ft 499 kts 47°
2026-05-05 19:20 34.37249 -83.04011 28735 ft 501 kts 47°
2026-05-05 19:21 34.39329 -83.00616 29000 ft 503 kts 47°
2026-05-05 19:21 34.41409 -82.97215 29349 ft 503 kts 47°
2026-05-05 19:21 34.43489 -82.93805 29773 ft 501 kts 47°
2026-05-05 19:21 34.45557 -82.90408 30203 ft 500 kts 47°
2026-05-05 19:22 34.47618 -82.87021 30563 ft 499 kts 47°
2026-05-05 19:22 34.49672 -82.83641 30961 ft 497 kts 47°
2026-05-05 19:22 34.51711 -82.80283 31402 ft 494 kts 46°
2026-05-05 19:22 34.53740 -82.76938 31850 ft 491 kts 46°
2026-05-05 19:23 34.55764 -82.73601 32228 ft 489 kts 45°
2026-05-05 19:23 34.57775 -82.70281 32567 ft 489 kts 45°
2026-05-05 19:23 34.59763 -82.66999 32883 ft 488 kts 45°
2026-05-05 19:23 34.61766 -82.63688 33214 ft 487 kts 45°
2026-05-05 19:24 34.63767 -82.60376 33553 ft 485 kts 45°
2026-05-05 19:24 34.65763 -82.57069 33873 ft 484 kts 45°
2026-05-05 19:24 34.67749 -82.53759 34159 ft 484 kts 45°
2026-05-05 19:24 34.69711 -82.50436 34420 ft 484 kts 45°
2026-05-05 19:25 34.71661 -82.47103 34694 ft 483 kts 45°
2026-05-05 19:25 34.73603 -82.43775 34930 ft 483 kts 45°
2026-05-05 19:25 34.75551 -82.40435 35110 ft 484 kts 45°
2026-05-05 19:25 34.77505 -82.37092 35075 ft 485 kts 44°
2026-05-05 19:26 34.81401 -82.30414 35075 ft 480 kts 44°
2026-05-05 19:26 34.85231 -82.23842 35065 ft 477 kts 44°
2026-05-05 19:27 34.89067 -82.17257 35061 ft 475 kts 44°
2026-05-05 19:27 34.92889 -82.10683 35073 ft 475 kts 44°
2026-05-05 19:28 34.96711 -82.04095 35053 ft 476 kts 44°
2026-05-05 19:28 35.00537 -81.97486 35065 ft 478 kts 44°
2026-05-05 19:29 35.04363 -81.90888 35058 ft 479 kts 44°
2026-05-05 19:29 35.08373 -81.84391 35045 ft 479 kts 42°
2026-05-05 19:30 35.12440 -81.77935 35048 ft 481 kts 42°
2026-05-05 19:30 35.16502 -81.71426 35051 ft 482 kts 43°
2026-05-05 19:31 35.20552 -81.64875 35066 ft 483 kts 43°
2026-05-05 19:31 35.24598 -81.58307 35060 ft 483 kts 43°
2026-05-05 19:32 35.28637 -81.51738 35027 ft 482 kts 43°
2026-05-05 19:32 35.32655 -81.45193 35032 ft 480 kts 43°
2026-05-05 19:33 35.36660 -81.38659 35032 ft 478 kts 43°
2026-05-05 19:33 35.40649 -81.32141 35047 ft 477 kts 43°
2026-05-05 19:34 35.44619 -81.25643 35086 ft 475 kts 43°
2026-05-05 19:35 35.50533 -81.15937 35059 ft 474 kts 43°
2026-05-05 19:35 35.54486 -81.09433 35048 ft 474 kts 43°
2026-05-05 19:36 35.58426 -81.02943 35054 ft 473 kts 43°
2026-05-05 19:36 35.62368 -80.96448 35046 ft 474 kts 43°
2026-05-05 19:37 35.66288 -80.89978 35058 ft 474 kts 43°
2026-05-05 19:37 35.70224 -80.83468 35055 ft 475 kts 43°
2026-05-05 19:38 35.74163 -80.76939 35042 ft 475 kts 43°
2026-05-05 19:38 35.78100 -80.70400 35044 ft 475 kts 44°
2026-05-05 19:39 35.82036 -80.63851 35028 ft 474 kts 44°
2026-05-05 19:39 35.85958 -80.57313 35032 ft 474 kts 44°
2026-05-05 19:40 35.89852 -80.50810 35020 ft 474 kts 44°
2026-05-05 19:40 35.93763 -80.44265 35029 ft 474 kts 44°
2026-05-05 19:41 35.97670 -80.37716 35008 ft 473 kts 44°
2026-05-05 19:41 36.01559 -80.31167 35013 ft 473 kts 44°
2026-05-05 19:42 36.05438 -80.24616 35015 ft 472 kts 44°
2026-05-05 19:42 36.09312 -80.18064 35010 ft 472 kts 44°
2026-05-05 19:43 36.13158 -80.11546 35016 ft 472 kts 44°
2026-05-05 19:43 36.17024 -80.04982 35049 ft 471 kts 44°
2026-05-05 19:44 36.20890 -79.98427 35035 ft 471 kts 44°
2026-05-05 19:44 36.24757 -79.91881 35039 ft 470 kts 44°
2026-05-05 19:45 36.28609 -79.85347 35024 ft 470 kts 44°
2026-05-05 19:45 36.32456 -79.78806 35045 ft 470 kts 44°
2026-05-05 19:46 36.36313 -79.72234 35025 ft 471 kts 44°
2026-05-05 19:46 36.40166 -79.65653 35001 ft 471 kts 44°
2026-05-05 19:47 36.43993 -79.59105 34999 ft 471 kts 44°
2026-05-05 19:47 36.47844 -79.52503 34999 ft 472 kts 44°
2026-05-05 19:48 36.51698 -79.45885 34997 ft 473 kts 44°
2026-05-05 19:48 36.55559 -79.39240 34998 ft 474 kts 45°
2026-05-05 19:49 36.59425 -79.32572 35033 ft 475 kts 45°
2026-05-05 19:49 36.63291 -79.25893 35027 ft 476 kts 45°
2026-05-05 19:50 36.67158 -79.19198 35018 ft 476 kts 45°
2026-05-05 19:50 36.71026 -79.12486 35009 ft 476 kts 45°
2026-05-05 19:51 36.74891 -79.05770 35012 ft 477 kts 45°
2026-05-05 19:51 36.78760 -78.99030 34984 ft 478 kts 45°
2026-05-05 19:52 36.82608 -78.92317 34999 ft 478 kts 45°
2026-05-05 19:52 36.86466 -78.85537 34979 ft 479 kts 45°
2026-05-05 19:53 36.90310 -78.78746 34990 ft 478 kts 45°
2026-05-05 19:53 36.94148 -78.71955 35012 ft 478 kts 45°
2026-05-05 19:54 36.97990 -78.65148 35008 ft 478 kts 46°
2026-05-05 19:54 37.01817 -78.58353 35001 ft 478 kts 46°
2026-05-05 19:55 37.05639 -78.51553 34995 ft 477 kts 46°
2026-05-05 19:55 37.09428 -78.44799 34987 ft 476 kts 46°
2026-05-05 19:56 37.13235 -78.38000 34990 ft 476 kts 46°
2026-05-05 19:56 37.17036 -78.31197 34994 ft 476 kts 46°
2026-05-05 19:57 37.20800 -78.24338 34991 ft 481 kts 50°
2026-05-05 19:57 37.24091 -78.17032 34999 ft 486 kts 53°
2026-05-05 19:58 37.27285 -78.09537 34969 ft 486 kts 53°
2026-05-05 19:58 37.30531 -78.02086 34973 ft 486 kts 52°
2026-05-05 19:59 37.33809 -77.94648 35001 ft 486 kts 52°
2026-05-05 19:59 37.37064 -77.87258 34989 ft 485 kts 51°
2026-05-05 19:59 37.38952 -77.83811 34974 ft 472 kts 40°
2026-05-05 20:00 37.41185 -77.80844 34999 ft 461 kts 33°
2026-05-05 20:00 37.43651 -77.78343 34990 ft 449 kts 24°
2026-05-05 20:00 37.46291 -77.76280 35004 ft 445 kts 21°
2026-05-05 20:01 37.51576 -77.72172 34996 ft 447 kts 22°
2026-05-05 20:01 37.56834 -77.67937 34987 ft 448 kts 23°
2026-05-05 20:02 37.62084 -77.63671 34980 ft 449 kts 23°
2026-05-05 20:02 37.67346 -77.59397 34969 ft 450 kts 23°
2026-05-05 20:03 37.72576 -77.55147 34967 ft 450 kts 24°
2026-05-05 20:03 37.77837 -77.50872 34965 ft 449 kts 24°
2026-05-05 20:04 37.83087 -77.46605 34968 ft 448 kts 24°
2026-05-05 20:04 37.88331 -77.42335 34963 ft 447 kts 24°
2026-05-05 20:05 37.93551 -77.38076 34962 ft 446 kts 24°
2026-05-05 20:05 37.97888 -77.34532 34963 ft 446 kts 24°
2026-05-05 20:06 38.03952 -77.29574 34937 ft 446 kts 24°
2026-05-05 20:06 38.08297 -77.26019 34936 ft 446 kts 24°
2026-05-05 20:07 38.13521 -77.21736 34927 ft 446 kts 24°
2026-05-05 20:07 38.18739 -77.17449 34949 ft 446 kts 24°
2026-05-05 20:08 38.23957 -77.13154 34922 ft 447 kts 24°
2026-05-05 20:08 38.29146 -77.08876 34931 ft 447 kts 25°
2026-05-05 20:09 38.34225 -77.04190 34930 ft 452 kts 29°
2026-05-05 20:09 38.39216 -76.99278 34923 ft 453 kts 29°
2026-05-05 20:10 38.44221 -76.94386 34928 ft 453 kts 28°
2026-05-05 20:10 38.49251 -76.89516 34929 ft 454 kts 28°
2026-05-05 20:11 38.54261 -76.84675 34936 ft 454 kts 29°
2026-05-05 20:11 38.59299 -76.79795 34924 ft 454 kts 29°
2026-05-05 20:12 38.64337 -76.74904 34925 ft 455 kts 29°
2026-05-05 20:12 38.69377 -76.70003 34899 ft 455 kts 29°
2026-05-05 20:13 38.74413 -76.65097 34900 ft 455 kts 29°
2026-05-05 20:13 38.79456 -76.60176 34899 ft 455 kts 29°
2026-05-05 20:14 38.84492 -76.55253 34905 ft 456 kts 29°
2026-05-05 20:14 38.89512 -76.50336 34922 ft 456 kts 29°
2026-05-05 20:15 38.94557 -76.45384 34915 ft 456 kts 30°
2026-05-05 20:15 38.99594 -76.40431 34904 ft 456 kts 30°
2026-05-05 20:16 39.04573 -76.35395 34896 ft 453 kts 33°
2026-05-05 20:16 39.06903 -76.32715 34718 ft 441 kts 34°
2026-05-05 20:16 39.09121 -76.30059 34211 ft 431 kts 34°
2026-05-05 20:16 39.11310 -76.27431 33305 ft 430 kts 34°
2026-05-05 20:17 39.13507 -76.24823 32198 ft 431 kts 34°
2026-05-05 20:17 39.15768 -76.22174 30690 ft 449 kts 36°
2026-05-05 20:17 39.18135 -76.19420 29257 ft 465 kts 37°
2026-05-05 20:17 39.20532 -76.16609 28555 ft 462 kts 38°
2026-05-05 20:18 39.22896 -76.13828 27834 ft 459 kts 38°
2026-05-05 20:18 39.25248 -76.11066 27190 ft 455 kts 38°
2026-05-05 20:18 39.27577 -76.08333 26666 ft 448 kts 38°
2026-05-05 20:18 39.29832 -76.05682 26327 ft 441 kts 38°
2026-05-05 20:19 39.32117 -76.03000 25959 ft 448 kts 39°
2026-05-05 20:19 39.34440 -76.00273 25587 ft 454 kts 39°
2026-05-05 20:19 39.36777 -75.97525 25177 ft 454 kts 39°
2026-05-05 20:19 39.39106 -75.94778 24783 ft 450 kts 39°
2026-05-05 20:20 39.41408 -75.92059 24414 ft 448 kts 39°
2026-05-05 20:20 39.43706 -75.89343 24027 ft 446 kts 39°
2026-05-05 20:20 39.45997 -75.86633 23634 ft 446 kts 39°
2026-05-05 20:20 39.48285 -75.83927 23210 ft 445 kts 40°
2026-05-05 20:21 39.50568 -75.81222 22786 ft 444 kts 40°
2026-05-05 20:21 39.52845 -75.78521 22383 ft 442 kts 40°
2026-05-05 20:21 39.55110 -75.75833 21998 ft 440 kts 39°
2026-05-05 20:21 39.57361 -75.73160 21619 ft 438 kts 39°
2026-05-05 20:22 39.59602 -75.70495 21255 ft 436 kts 39°
2026-05-05 20:22 39.61830 -75.67843 20883 ft 434 kts 39°
2026-05-05 20:22 39.64053 -75.65197 20509 ft 432 kts 40°
2026-05-05 20:22 39.66261 -75.62565 20141 ft 431 kts 40°
2026-05-05 20:23 39.68464 -75.59935 19758 ft 430 kts 40°
2026-05-05 20:23 39.70631 -75.57336 19335 ft 430 kts 40°
2026-05-05 20:23 39.72845 -75.54670 18896 ft 426 kts 40°
2026-05-05 20:23 39.74981 -75.52094 18478 ft 422 kts 40°
2026-05-05 20:24 39.77121 -75.49511 18035 ft 418 kts 40°
2026-05-05 20:24 39.79241 -75.46950 17561 ft 414 kts 40°
2026-05-05 20:24 39.81341 -75.44412 17111 ft 410 kts 40°
2026-05-05 20:24 39.83416 -75.41903 16701 ft 405 kts 40°
2026-05-05 20:25 39.85467 -75.39422 16400 ft 402 kts 40°
2026-05-05 20:25 39.87530 -75.36926 16010 ft 406 kts 40°
2026-05-05 20:25 39.89614 -75.34402 15603 ft 408 kts 40°
2026-05-05 20:25 39.91685 -75.31889 15192 ft 406 kts 40°
2026-05-05 20:26 39.93752 -75.29380 14789 ft 404 kts 39°
2026-05-05 20:26 39.95805 -75.26884 14227 ft 405 kts 39°
2026-05-05 20:26 39.97857 -75.24388 13802 ft 397 kts 39°
2026-05-05 20:26 39.99836 -75.21974 13369 ft 382 kts 39°
2026-05-05 20:27 40.01741 -75.19649 12990 ft 368 kts 39°
2026-05-05 20:27 40.03551 -75.17441 12638 ft 355 kts 39°
2026-05-05 20:27 40.05321 -75.15281 12320 ft 342 kts 39°
2026-05-05 20:27 40.07034 -75.13192 12000 ft 332 kts 39°
2026-05-05 20:28 40.08693 -75.11167 11688 ft 322 kts 38°
2026-05-05 20:28 40.10312 -75.09191 11393 ft 316 kts 39°
2026-05-05 20:28 40.11911 -75.07236 11115 ft 315 kts 39°
2026-05-05 20:28 40.13523 -75.05267 10840 ft 321 kts 38°
2026-05-05 20:29 40.15163 -75.03260 10586 ft 323 kts 38°
2026-05-05 20:29 40.16798 -75.01255 10256 ft 321 kts 39°
2026-05-05 20:29 40.18422 -74.99260 9938 ft 319 kts 39°
2026-05-05 20:29 40.20041 -74.97272 9627 ft 317 kts 39°
2026-05-05 20:30 40.21645 -74.95302 9309 ft 315 kts 39°
2026-05-05 20:30 40.23240 -74.93341 9018 ft 313 kts 39°
2026-05-05 20:30 40.24820 -74.91397 8745 ft 311 kts 40°
2026-05-05 20:30 40.26356 -74.89418 8461 ft 309 kts 44°
2026-05-05 20:31 40.27805 -74.87382 8187 ft 308 kts 45°
2026-05-05 20:31 40.29242 -74.85328 7979 ft 303 kts 45°
2026-05-05 20:31 40.30670 -74.83299 7886 ft 304 kts 45°
2026-05-05 20:31 40.32117 -74.81256 7778 ft 308 kts 45°
2026-05-05 20:32 40.33581 -74.79197 7673 ft 309 kts 45°
2026-05-05 20:32 40.35040 -74.77145 7571 ft 307 kts 45°
2026-05-05 20:32 40.36492 -74.75102 7446 ft 305 kts 45°
2026-05-05 20:32 40.37917 -74.73095 7328 ft 296 kts 45°
2026-05-05 20:33 40.39296 -74.71152 7210 ft 285 kts 45°
2026-05-05 20:33 40.40635 -74.69264 7120 ft 281 kts 46°
2026-05-05 20:33 40.42014 -74.67457 7007 ft 279 kts 33°
2026-05-05 20:33 40.43756 -74.66502 6918 ft 268 kts
2026-05-05 20:34 40.45575 -74.66017 6839 ft 267 kts
2026-05-05 20:34 40.47404 -74.65547 6743 ft 268 kts
2026-05-05 20:34 40.49238 -74.65073 6638 ft 269 kts
2026-05-05 20:34 40.51080 -74.64592 6546 ft 270 kts
2026-05-05 20:35 40.52923 -74.64106 6450 ft 270 kts
2026-05-05 20:35 40.54768 -74.63615 6355 ft 270 kts
2026-05-05 20:35 40.56611 -74.63122 6268 ft 270 kts
2026-05-05 20:35 40.58429 -74.62634 6147 ft 262 kts
2026-05-05 20:36 40.60172 -74.62165 6056 ft 256 kts
2026-05-05 20:36 40.61912 -74.61699 5963 ft 255 kts
2026-05-05 20:36 40.63647 -74.61234 5864 ft 254 kts
2026-05-05 20:36 40.65380 -74.60770 5791 ft 253 kts
2026-05-05 20:37 40.67105 -74.60308 5706 ft 253 kts
2026-05-05 20:37 40.68248 -74.60001 5644 ft 253 kts
2026-05-05 20:37 40.70553 -74.59382 5536 ft 254 kts
2026-05-05 20:37 40.72324 -74.58908 5458 ft 264 kts
2026-05-05 20:38 40.74138 -74.58421 5398 ft 265 kts
2026-05-05 20:38 40.75925 -74.57938 5258 ft 259 kts
2026-05-05 20:38 40.77664 -74.57467 5147 ft 251 kts
2026-05-05 20:38 40.79365 -74.57008 5081 ft 248 kts
2026-05-05 20:39 40.81066 -74.56551 5005 ft 251 kts
2026-05-05 20:39 40.82754 -74.56096 4922 ft 249 kts
2026-05-05 20:39 40.84362 -74.55308 4789 ft 243 kts 37°
2026-05-05 20:39 40.85327 -74.53604 4715 ft 233 kts 75°
2026-05-05 20:40 40.85692 -74.51546 4662 ft 229 kts 89°
2026-05-05 20:40 40.85701 -74.49448 4557 ft 227 kts 99°
2026-05-05 20:40 40.85590 -74.47375 4487 ft 225 kts 101°
2026-05-05 20:40 40.85464 -74.45327 4397 ft 224 kts 101°
2026-05-05 20:41 40.85345 -74.43283 4312 ft 223 kts 101°
2026-05-05 20:41 40.85232 -74.41219 4254 ft 229 kts 101°
2026-05-05 20:41 40.85123 -74.39112 4146 ft 230 kts 99°
2026-05-05 20:41 40.85021 -74.37011 4075 ft 229 kts 99°
2026-05-05 20:42 40.84922 -74.34905 3962 ft 229 kts 100°
2026-05-05 20:42 40.84826 -74.32804 3890 ft 229 kts 100°
2026-05-05 20:42 40.84730 -74.30727 3806 ft 229 kts 99°
2026-05-05 20:42 40.84638 -74.28629 3743 ft 229 kts 98°
2026-05-05 20:43 40.84548 -74.26534 3686 ft 227 kts 99°
2026-05-05 20:43 40.84455 -74.24448 3592 ft 228 kts 99°
2026-05-05 20:43 40.84362 -74.22368 3506 ft 225 kts 99°
2026-05-05 20:43 40.84272 -74.20324 3403 ft 221 kts 99°
2026-05-05 20:44 40.84178 -74.18274 3351 ft 225 kts 98°
2026-05-05 20:44 40.84084 -74.16208 3285 ft 226 kts 98°
2026-05-05 20:44 40.83992 -74.14160 3190 ft 218 kts 98°
2026-05-05 20:44 40.83907 -74.12215 3051 ft 206 kts 99°
2026-05-05 20:45 40.82712 -74.09389 3017 ft 172 kts 162°
2026-05-05 20:45 40.81595 -74.09095 2858 ft 159 kts 196°
2026-05-05 20:45 40.80597 -74.09518 2672 ft 142 kts 204°
2026-05-05 20:46 40.79692 -74.09931 2356 ft 135 kts 205°
2026-05-05 20:46 40.78859 -74.10381 2022 ft 129 kts 207°
2026-05-05 20:46 40.78052 -74.10870 1792 ft 129 kts 209°
2026-05-05 20:46 40.77237 -74.11383 1609 ft 132 kts 208°
2026-05-05 20:47 40.76407 -74.11911 1433 ft 131 kts 208°
2026-05-05 20:47 40.75573 -74.12442 1248 ft 135 kts 207°
2026-05-05 20:47 40.74742 -74.12971 1055 ft 132 kts 209°
2026-05-05 20:47 40.73909 -74.13501 953 ft 142 kts 207°
2026-05-05 20:48 40.72987 -74.14102 827 ft 144 kts 207°
2026-05-05 20:48 40.72096 -74.14646 612 ft 138 kts 208°
2026-05-05 20:48 40.71266 -74.15177 371 ft 129 kts 210°
2026-05-05 20:48 40.70451 -74.15707 191 ft 131 kts 212°
2026-05-05 20:49 40.69668 -74.16208 45 ft 117 kts 210°
2026-05-05 20:49 40.68996 -74.16638 22 ft 89 kts 205°
2026-05-05 20:49 40.68643 -74.16860 21 ft 28 kts 207°
2026-05-05 20:49 40.68534 -74.16998 21 ft 18 kts 236°
2026-05-05 20:50 40.68492 -74.17076 22 ft 10 kts 236°
2026-05-05 20:50 40.68475 -74.17110 22 ft 3 kts 236°
2026-05-05 20:50 40.68440 -74.17201 22 ft 9 kts 270°
2026-05-05 20:50 40.68469 -74.17323 24 ft 17 kts 294°
2026-05-05 20:51 40.68501 -74.17406 22 ft 2 kts 299°
2026-05-05 20:51 40.68517 -74.17432 22 ft 7 kts 317°
2026-05-05 20:51 40.68557 -74.17477 22 ft 8 kts 316°
2026-05-05 20:51 40.68579 -74.17536 21 ft 7 kts 267°
2026-05-05 20:52 40.68559 -74.17570 24 ft 7 kts 215°
2026-05-05 20:52 40.68502 -74.17616 21 ft 7 kts 209°
2026-05-05 20:52 40.68457 -74.17643 21 ft 7 kts 202°
2026-05-05 20:52 40.68404 -74.17673 21 ft 14 kts 205°
2026-05-05 20:53 40.68341 -74.17714 21 ft 15 kts 206°
2026-05-05 20:53 40.68220 -74.17789 21 ft 14 kts 206°
2026-05-05 20:53 40.68186 -74.17852 21 ft 14 kts 278°
2026-05-05 20:53 40.68216 -74.17949 22 ft 8 kts 294°
2026-05-05 20:54 40.68231 -74.18004 21 ft 6 kts 278°
2026-05-05 20:54 40.68232 -74.18018 24 ft 6 kts 275°
2026-05-05 20:54 40.68234 -74.18077 21 ft 7 kts 271°
2026-05-05 20:54 40.68235 -74.18139 21 ft 9 kts 270°
2026-05-05 20:55 40.68233 -74.18257 21 ft 14 kts 273°
2026-05-05 20:55 40.68242 -74.18383 21 ft 14 kts 274°
2026-05-05 20:55 40.68249 -74.18506 21 ft 13 kts 271°
2026-05-05 20:55 40.68218 -74.18607 22 ft 11 kts 217°
2026-05-05 20:56 40.68164 -74.18658 21 ft 5 kts 249°
2026-05-05 20:56 40.68164 -74.18700 21 ft 5 kts 276°
2026-05-05 20:56 40.68171 -74.18740 21 ft 4 kts 282°
2026-05-05 20:56 40.68173 -74.18752 25 ft 0 kts 282°